GW4466 Weather Reports


time (UTC)temp
C
wind
direction
speed
KPH
gust
KPH
rain 1hr
cm
rain 24hr
cm
rain mn
cm
humidity
%
barometer
mb
20260504190058 24 170 11.3 25.7 0.00 0.00 0.00 41 1010.8
20260504185558 24 170 11.3 25.7 0.00 0.00 0.00 41 1010.1
20260504185059 24 194 24.1 25.7 0.00 0.00 0.00 41 1010.1
20260504184558 25 182 14.5 24.1 0.00 0.00 0.00 40 1010.4
20260504184058 24 253 3.2 24.1 0.00 0.00 0.00 40 1010.8
20260504183558 24 253 3.2 24.1 0.00 0.00 0.00 40 1010.4
20260504183059 24 186 19.3 24.1 0.00 0.00 0.00 41 1010.8
20260504182559 24 186 19.3 27.4 0.00 0.00 0.00 41 1010.8
20260504181558 23 227 17.7 27.4 0.00 0.00 0.00 42 1010.8
20260504181058 23 227 17.7 32.2 0.00 0.00 0.00 42 1010.8
20260504180559 24 229 29.0 32.2 0.00 0.00 0.00 42 1010.8
20260504180059 24 229 29.0 32.2 0.00 0.00 0.00 42 1010.8
20260504175558 24 229 29.0 32.2 0.00 0.00 0.00 42 1010.8
20260504175059 23 194 16.1 30.6 0.00 0.00 0.00 43 1011.1
20260504174559 23 212 20.9 33.8 0.00 0.00 0.00 44 1010.8
20260504174059 23 212 20.9 33.8 0.00 0.00 0.00 44 1011.1
20260504173558 24 179 29.0 33.8 0.00 0.00 0.00 43 1010.8
20260504173058 23 204 17.7 29.0 0.00 0.00 0.00 44 1011.5
20260504172559 23 183 24.1 29.0 0.00 0.00 0.00 44 1011.1
20260504172058 23 183 24.1 32.2 0.00 0.00 0.00 44 1011.5
20260504171558 23 183 24.1 32.2 0.00 0.00 0.00 44 1011.5
20260504171058 23 240 14.5 32.2 0.00 0.00 0.00 44 1011.5
20260504170558 23 127 6.4 32.2 0.00 0.00 0.00 45 1011.8
20260504151058 20 164 14.5 24.1 0.00 0.00 0.00 52 1012.8
20260504150558 20 160 11.3 29.0 0.00 0.00 0.00 52 1012.8
20260504140842 18 213 11.3 27.4 0.00 0.00 0.00 56 1013.2
20260504140342 18 213 11.3 27.4 0.00 0.00 0.00 56 1012.8
20260504130800 16 178 9.7 14.5 0.00 0.00 0.00 62 1013.2
20260504130300 15 166 8.0 16.1 0.00 0.00 0.00 62 1013.2
20260504120300 13 125 4.8 14.5 0.00 0.00 0.00 63 1012.8
20260504110300 13 165 9.7 12.9 0.00 0.00 0.00 63 1012.5
20260504100300 13 157 6.4 11.3 0.00 0.00 0.00 62 1012.5
20260504081800 14 165 12.9 16.1 0.00 0.00 0.00 59 1012.1
20260504081300 14 170 4.8 14.5 0.00 0.00 0.00 59 1012.1
20260504080800 14 147 11.3 14.5 0.00 0.00 0.00 59 1012.1
20260504080300 14 151 8.0 14.5 0.00 0.00 0.00 59 1012.5
20260504070300 13 175 16.1 20.9 0.00 0.00 0.00 59 1013.2
20260504050300 14 177 8.0 16.1 0.00 0.00 0.00 58 1013.9
20260504045800 14 177 8.0 17.7 0.00 0.00 0.00 58 1013.9
20260504045259 14 181 4.8 17.7 0.00 0.00 0.00 58 1013.9
20260504044800 14 184 8.0 14.5 0.00 0.00 0.00 57 1013.9
20260504044300 14 184 8.0 14.5 0.00 0.00 0.00 57 1014.2
20260504043800 14 182 8.0 14.5 0.00 0.00 0.00 57 1014.2
20260504043300 14 183 9.7 14.5 0.00 0.00 0.00 57 1014.2
20260504042800 14 183 9.7 14.5 0.00 0.00 0.00 57 1014.2
20260504042300 14 167 11.3 12.9 0.00 0.00 0.00 58 1014.2
20260504041800 14 181 9.7 12.9 0.00 0.00 0.00 58 1014.2
20260504041300 14 181 9.7 12.9 0.00 0.00 0.00 58 1014.6
20260504040759 14 182 8.0 11.3 0.00 0.00 0.00 58 1014.2
20260504040300 14 181 8.0 9.7 0.00 0.00 0.00 59 1013.9
20260504035800 15 188 6.4 14.5 0.00 0.00 0.00 56 1014.2
20260504035300 15 173 12.9 14.5 0.00 0.00 0.00 56 1014.6
20260504034800 15 181 8.0 12.9 0.00 0.00 0.00 55 1014.2
20260504034300 15 166 9.7 12.9 0.00 0.00 0.00 56 1014.2
20260504033800 15 166 9.7 14.5 0.00 0.00 0.00 56 1014.6
20260504033300 15 166 9.7 14.5 0.00 0.00 0.00 56 1014.2
20260504032759 15 167 14.5 14.5 0.00 0.00 0.00 54 1014.6
20260504032300 15 167 14.5 14.5 0.00 0.00 0.00 54 1014.2
20260504031800 15 159 14.5 16.1 0.00 0.00 0.00 53 1014.6
20260504031300 15 159 12.9 16.1 0.00 0.00 0.00 52 1014.2
20260504030800 15 148 12.9 16.1 0.00 0.00 0.00 52 1014.2
20260504030300 16 160 12.9 14.5 0.00 0.00 0.00 50 1014.6
20260504025800 16 163 12.9 14.5 0.00 0.00 0.00 50 1014.6
20260504025300 16 156 11.3 11.3 0.00 0.00 0.00 48 1014.6
20260504024759 16 156 11.3 12.9 0.00 0.00 0.00 48 1014.6
20260504024300 16 162 11.3 12.9 0.00 0.00 0.00 48 1014.2
20260504023800 16 167 11.3 12.9 0.00 0.00 0.00 49 1014.6
20260504023300 16 136 8.0 12.9 0.00 0.00 0.00 49 1014.6
20260504022800 16 154 9.7 12.9 0.00 0.00 0.00 49 1014.6
20260504022300 16 158 9.7 12.9 0.00 0.00 0.00 49 1014.6
20260504021800 17 178 4.8 12.9 0.00 0.00 0.00 48 1014.6
20260504021300 17 178 9.7 12.9 0.00 0.00 0.00 48 1014.6
20260504020800 17 198 4.8 12.9 0.00 0.00 0.00 47 1014.6
20260504020300 17 193 4.8 12.9 0.00 0.00 0.00 47 1014.6
20260504015800 17 179 8.0 11.3 0.00 0.00 0.00 46 1014.6
20260504015259 17 180 9.7 12.9 0.00 0.00 0.00 46 1014.2
20260504014800 17 171 9.7 12.9 0.00 0.00 0.00 46 1014.2
20260504014300 17 174 9.7 12.9 0.00 0.00 0.00 46 1014.2
20260504013800 17 182 11.3 11.3 0.00 0.00 0.00 46 1013.9
20260504013300 17 182 11.3 11.3 0.00 0.00 0.00 46 1014.2
20260504012759 17 178 9.7 11.3 0.00 0.00 0.00 46 1013.9
20260504012300 17 176 8.0 11.3 0.00 0.00 0.00 46 1013.9
20260504011759 17 164 8.0 11.3 0.00 0.00 0.00 46 1013.9
20260504011300 17 180 8.0 11.3 0.00 0.00 0.00 46 1013.9
20260504010800 17 173 8.0 12.9 0.00 0.00 0.00 45 1013.9
20260504010300 17 179 6.4 12.9 0.00 0.00 0.00 45 1013.5
20260504005800 17 183 6.4 12.9 0.00 0.00 0.00 45 1013.5
20260504005300 18 175 8.0 12.9 0.00 0.00 0.00 45 1013.5
20260504004800 18 176 9.7 11.3 0.00 0.00 0.00 44 1013.5
20260504004300 18 182 8.0 12.9 0.00 0.00 0.00 44 1013.5
20260504003800 18 180 6.4 14.5 0.00 0.00 0.00 43 1013.5
20260504003300 18 178 8.0 14.5 0.00 0.00 0.00 42 1013.5
20260504002800 18 191 12.9 16.1 0.00 0.00 0.00 41 1013.5
20260504002300 18 189 12.9 16.1 0.00 0.00 0.00 40 1013.9
20260504001800 19 191 12.9 16.1 0.00 0.00 0.00 39 1013.5
20260504001300 19 191 12.9 16.1 0.00 0.00 0.00 39 1013.5
20260504000759 19 210 8.0 16.1 0.00 0.00 0.00 39 1013.9
20260504000300 19 165 9.7 16.1 0.00 0.00 0.00 38 1014.2
20260503235800 20 175 9.7 14.5 0.00 0.00 0.00 38 1013.9
20260503235300 19 39 4.8 14.5 0.00 0.00 0.00 38 1013.9
20260503234800 20 192 9.7 17.7 0.00 0.00 0.00 37 1013.9
20260503234300 20 179 6.4 17.7 0.00 0.00 0.00 37 1014.2
20260503233800 20 226 8.0 14.5 0.00 0.00 0.00 37 1014.2
20260503233300 20 147 3.2 14.5 0.00 0.00 0.00 36 1014.2
20260503232759 20 135 4.8 14.5 0.00 0.00 0.00 36 1014.2
20260503232300 20 130 8.0 14.5 0.00 0.00 0.00 35 1014.2
20260503231759 20 118 3.2 14.5 0.00 0.00 0.00 36 1014.2
20260503231300 20 220 14.5 19.3 0.00 0.00 0.00 35 1014.2
20260503230759 20 14 3.2 19.3 0.00 0.00 0.00 36 1014.2
20260503230300 20 17 1.6 24.1 0.00 0.00 0.00 35 1014.2
20260503225800 20 216 14.5 24.1 0.00 0.00 0.00 35 1014.2
20260503225259 20 353 4.8 27.4 0.00 0.00 0.00 34 1014.2
20260503224800 20 197 14.5 27.4 0.00 0.00 0.00 35 1014.2
20260503224300 20 216 8.0 14.5 0.00 0.00 0.00 34 1014.6
20260503223800 20 154 4.8 19.3 0.00 0.00 0.00 34 1014.6
20260503223300 20 185 12.9 19.3 0.00 0.00 0.00 34 1014.6
20260503222800 20 225 11.3 16.1 0.00 0.00 0.00 33 1014.6
20260503222300 20 248 11.3 17.7 0.00 0.00 0.00 33 1014.6
20260503221759 20 188 9.7 17.7 0.00 0.00 0.00 33 1014.6
20260503221300 20 253 16.1 17.7 0.00 0.00 0.00 33 1014.6
20260503220759 20 97 4.8 19.3 0.00 0.00 0.00 33 1014.6
20260503220300 20 197 9.7 19.3 0.00 0.00 0.00 32 1014.6
20260503215759 20 209 8.0 19.3 0.00 0.00 0.00 34 1014.6
20260503215300 20 220 11.3 17.7 0.00 0.00 0.00 33 1014.6
20260503214759 20 188 11.3 17.7 0.00 0.00 0.00 33 1014.9
20260503214300 20 199 3.2 24.1 0.00 0.00 0.00 33 1014.9
20260503213759 20 158 8.0 24.1 0.00 0.00 0.00 33 1015.3
20260503213300 20 33 1.6 19.3 0.00 0.00 0.00 33 1014.9
20260503212800 20 262 11.3 19.3 0.00 0.00 0.00 33 1015.3
20260503212300 20 243 12.9 19.3 0.00 0.00 0.00 32 1014.9
20260503211800 20 164 11.3 17.7 0.00 0.00 0.00 34 1015.3
20260503211300 20 220 14.5 17.7 0.00 0.00 0.00 33 1015.3
20260503210800 20 190 11.3 17.7 0.00 0.00 0.00 32 1015.3
20260503210300 20 261 11.3 22.5 0.00 0.00 0.00 32 1015.3
20260503205800 20 195 8.0 22.5 0.00 0.00 0.00 33 1015.3
20260503205300 20 291 8.0 17.7 0.00 0.00 0.00 32 1015.6
20260503204800 20 134 4.8 17.7 0.00 0.00 0.00 32 1015.6
20260503204300 20 61 11.3 29.0 0.00 0.00 0.00 32 1015.6
20260503203800 19 212 6.4 29.0 0.00 0.00 0.00 33 1015.6
20260503203300 19 189 19.3 29.0 0.00 0.00 0.00 33 1015.6
20260503202800 19 236 12.9 17.7 0.00 0.00 0.00 33 1015.6
20260503202300 19 234 8.0 20.9 0.00 0.00 0.00 33 1015.9
20260503201759 19 234 8.0 20.9 0.00 0.00 0.00 33 1016.3
20260503201259 19 183 9.7 14.5 0.00 0.00 0.00 33 1016.3
20260503200800 20 81 6.4 9.7 0.00 0.00 0.00 32 1016.3
20260503200300 20 81 6.4 17.7 0.00 0.00 0.00 32 1016.3
20260503195800 19 320 4.8 17.7 0.00 0.00 0.00 33 1016.6
20260503195300 19 254 11.3 17.7 0.00 0.00 0.00 33 1017.0
20260503194800 19 276 3.2 20.9 0.00 0.00 0.00 33 1016.6
20260503194259 18 157 14.5 20.9 0.00 0.00 0.00 34 1016.6
20260503193759 18 183 9.7 20.9 0.00 0.00 0.00 35 1016.6
20260503193300 18 219 3.2 11.3 0.00 0.00 0.00 35 1017.0
20260503192800 18 335 0.0 24.1 0.00 0.00 0.00 34 1017.3
20260503192300 18 335 0.0 25.7 0.00 0.00 0.00 34 1017.3
20260503191800 18 203 17.7 25.7 0.00 0.00 0.00 34 1017.7
20260503191259 17 296 11.3 22.5 0.00 0.00 0.00 36 1017.7
20260503190800 18 243 16.1 19.3 0.00 0.00 0.00 34 1017.3
20260503190300 18 243 16.1 19.3 0.00 0.00 0.00 34 1017.7